Simultaneous Nadir Overpasses (SNOs) Predictions

Prediction of SNOs between AQUA and METOP-A Satellite Orbit:

Table of predicted SNOs for the next 14.0 days since TLE Epoch: 4/17/2021
Index Date (AQUA) Time (AQUA) Lat,Lon (AQUA) SZA (AQUA ) Date (METOP-A) Time (METOP-A) Lat,Lon (METOP-A) SZA (METOP-A ) Distance(km) Time Diff (sec)
1 04/18/2021 14:42:28 -77.28, 123.79 113.35 04/18/2021 14:41:53 -77.27, 123.85 113.36 2.61 35
2 04/18/2021 15:31:56 77.31, -68.68 66.68 04/18/2021 15:32:32 77.31, -68.62 66.67 1.59 36
3 04/21/2021 10:16:43 -77.28,-169.77 114.32 04/21/2021 10:16:14 -77.28,-169.76 114.32 0.75 29
4 04/21/2021 11:06:11 77.32, -2.27 65.71 04/21/2021 11:06:53 77.32, -2.25 65.70 0.66 42
5 04/24/2021 05:50:58 -77.29,-103.36 115.26 04/24/2021 05:50:35 -77.29,-103.37 115.25 0.48 23
6 04/24/2021 06:40:26 77.33, 64.12 64.78 04/24/2021 06:41:14 77.33, 64.12 64.77 0.30 48
7 04/27/2021 01:25:12 -77.30, -36.97 116.16 04/27/2021 01:24:55 -77.30, -37.00 116.16 1.06 17
8 04/27/2021 02:14:40 77.35, 130.49 63.89 04/27/2021 02:15:34 77.33, 130.48 63.86 1.95 54
9 04/29/2021 20:09:50 76.82,-136.35 62.39 04/29/2021 20:08:46 76.77,-140.04 62.61 94.09 64
10 04/29/2021 20:59:27 -77.32, 29.39 117.02 04/29/2021 20:59:16 -77.30, 29.37 117.04 2.31 11



Historial Predications of SNOs between AQUA and METOP-A
